"Pseudo-MPEC" for C1HKQG2

Created 2019 Dec 3 13:07:17 UT using Find_Orb

Click here for an explanation of pseudo-MPECs

 
 Astrometry: 
     C1HKQG2  C2019 11 25'`UkcYZAstrometry'=y%+'EgWeZkBQ[]-.YCU@?.redacted;!%F51
     C1HKQG2  C2019 11 25=mBvMJnL)SSNAd9!/5,ksnyR7.L0pN53AXdn\Xtclicke1M:Rk-.F51
     C1HKQG2  C2019 11 25!CnlpbEHy-u/##y6x1lm2@2DGLP848mW-9'o^OIE$2H[e_Yv9%CLF51
     C1HKQG2  C2019 11 25EVJl\T+pmx'8.IP8Lvp_xR$]1!Q7D#6ThereM)k'h;N@C(2+,cwXF51
     C1HKQG2  C2019 11 299Hq7vOeQVO]m*dPOEjt8gVKsbhJA'rlrLh!8s[nIr;-\E\\=LVV:F51
     C1HKQG2  C2019 11 292'gOo7pPd6+XNX9w'flhH8J*UQ:1k'l2VaIkgBn$'LR`?)A+P0.hF51
     C1HKQG2  C2019 11 294lwe-c0h/BxqF$3d7(jDB0'coWMWybforJQM1:^yIZQtUk:/U+7FF51
     C1HKQG2  C2019 11 29O301Q%h$7B@asexplanationHr3`K6@VeG1V;t1F2WPyAaP!)/8KF51
     C1HKQG2  C2019 12 02.36818 07 10 03.84 +34 36 04.9    ~C29q 21.6 GVNEOCPG96
     C1HKQG2  C2019 12 02.37337 07 10 04.48 +34 36 06.6    ~C29q 21.6 GVNEOCPG96
     C1HKQG2  C2019 12 02.37855 07 10 05.09 +34 36 08.2    ~C29q 21.9 GVNEOCPG96
     C1HKQG2  C2019 12 02.38372 07 10 05.78 +34 36 10.4    ~C29q 21.4 GVNEOCPG96
     C1HKQG2  C2019 12 02.41902 07 10 10.05 +34 36 22.6    ~C2Ab 21.7 GVNEOCPV06
     C1HKQG2  C2019 12 02.42218 07 10 10.44 +34 36 23.7    ~C2Ab 21.4 GVNEOCPV06
     C1HKQG2  C2019 12 02.42574 07 10 10.89 +34 36 24.8    ~C2Ab 21.4 GVNEOCPV06
     C1HKQG2  C2019 12 02.42929 07 10 11.31 +34 36 26.1    ~C2Ab 21.4 GVNEOCPV06
     C1HKQG2  C2019 12 03.30693 07 12 21.20 +34 41 31.2    ~C387       VNEOCPI52
     C1HKQG2  C2019 12 03.32096 07 12 23.14 +34 41 37.2    ~C387 21.1 GVNEOCPI52

Station data:
(F51) Pan-STARRS 1, Haleakala  (N20.707235 W156.255910)  US/Hawaii.
   Observers N. Primak, A. Schultz, S. Watters, J. Thiel, T. Goggia. Measurer
   PS1 Science Consortium. 1.8-m Ritchey-Chrétien + CCD.
(G96) Mt. Lemmon Survey  (N32.442754 W110.788720)  US/Arizona.  Observers T.
   A. Pruyne, B. M. Africano, E. J. Christensen, G. A. Farneth, D. C. Fuls,
   A. R. Gibbs, A. D. Grauer, H. Gröller, J. A. Johnson, R. A. Kowalski, S.
   M. Larson, G. J. Leonard, D. Rankin, R. L. Seaman, F. C. Shelly. 1.5-m
   reflector + 10K CCD.
(I52) Steward Observatory, Mt. Lemmon Station  (N32.442547 W110.788920)
   US/Arizona.  Observers T. A. Pruyne, B. M. Africano, E. J. Christensen, G.
   A. Farneth, D. C. Fuls, A. R. Gibbs, A. D. Grauer, H. Gröller, J. A.
   Johnson, R. A. Kowalski, S. M. Larson, G. J. Leonard, D. Rankin, R. L.
   Seaman, F. C. Shelly. 1.0-m reflector + CCD.
(V06) Catalina Sky Survey-Kuiper  (N32.416847 W110.732550)  US/Arizona.
   Observers T. A. Pruyne, B. M. Africano, E. J. Christensen, G. A. Farneth,
   D. C. Fuls, A. R. Gibbs, A. D. Grauer, H. Gröller, J. A. Johnson, R. A.
   Kowalski, S. M. Larson, G. J. Leonard, D. Rankin, R. L. Seaman, F. C.
   Shelly. 1.55-m reflector + CCD.

Orbital elements:  C1HKQG2
   Perihelion 2020 Feb 3.971733 +/- 0.293 TT = 23:19:17 (JD 2458883.471733)
Epoch 2019 Dec  3.0 TT = JDT 2458820.5   Earth MOID: 0.0087   Ve: 0.0594
M 320.51494153 +/- 1.0              Me: 0.0111                AutoNEOCP
n   0.62702829 +/- 0.0143           Peri.  291.62987 +/- 0.10
a   1.35190017 +/- 0.0205           Node   269.59317 +/- 0.055
e   0.6959351 +/- 0.00634           Incl.    9.45957 +/- 0.10
P   1.57/574.13d           H 23.4   G  0.15   U  9.9  
q 0.41106536 +/- 0.00242    Q 2.29273498 +/- 0.0451
From 18 observations 2019 Nov. 25-Dec. 3; mean residual 0".15
Residuals in arcseconds: 
191125 F51  .02-  .12-    191129 F51  .08-  .02+    191202 V06  .13-  .01+    
191125 F51  .29-  .19+    191129 F51  .09+  .12-    191202 V06  .09-  .05+    
191125 F51  .02+  .09+    191202 G96  .00   .27+    191202 V06  .07+  .02-    
191125 F51  .26+  .05+    191202 G96  .05+  .05+    191202 V06  .12-  .11+    
191129 F51  .06-  .06-    191202 G96  .25-  .24-    191203 I52  .08-  .02+    
191129 F51  .09+  .29-    191202 G96  .46+  .09+    191203 I52  .06+  .07-    

Ephemerides (geocentric):
Date (UTC) HH   RA              Dec         delta   r     elong  mag " sig PA
---- -- -- --  -------------   -----------  ------ ------ -----  --- ---- ---
2019 12 03 13  07 12 55.629   +34 42 59.26  .20704 1.1591 143.7 21.6 .067   0
2019 12 03 14  07 13 02.137   +34 43 14.64  .20644 1.1586 143.7 21.6 .072   7
2019 12 03 15  07 13 08.675   +34 43 30.08  .20585 1.1581 143.7 21.6 .079  14
2019 12 03 16  07 13 15.241   +34 43 45.56  .20525 1.1576 143.7 21.6 .086  19
2019 12 03 17  07 13 21.837   +34 44 01.09  .20466 1.1571 143.7 21.6 .094  25
2019 12 03 18  07 13 28.462   +34 44 16.66  .20406 1.1566 143.8 21.6 .104  29
2019 12 03 19  07 13 35.117   +34 44 32.28  .20347 1.1561 143.8 21.6 .114  33
2019 12 03 20  07 13 41.803   +34 44 47.95  .20288 1.1556 143.8 21.6 .126  36
2019 12 03 21  07 13 48.518   +34 45 03.67  .20228 1.1552 143.8 21.6 .138  39
2019 12 03 22  07 13 55.265   +34 45 19.43  .20169 1.1547 143.8 21.6 .151  42
2019 12 03 23  07 14 02.043   +34 45 35.24  .20109 1.1542 143.8 21.6 .165  44
2019 12 04 00  07 14 08.852   +34 45 51.10  .20050 1.1537 143.9 21.5 .179  47
2019 12 04 01  07 14 15.692   +34 46 07.02  .19991 1.1532 143.9 21.5 .195  49
2019 12 04 02  07 14 22.565   +34 46 22.97  .19931 1.1527 143.9 21.5 .211  50
2019 12 04 03  07 14 29.470   +34 46 38.98  .19872 1.1522 143.9 21.5 .228  52
2019 12 04 04  07 14 36.407   +34 46 55.04  .19813 1.1517 143.9 21.5 .246  53
2019 12 04 05  07 14 43.377   +34 47 11.15  .19754 1.1512 143.9 21.5 .265  55
2019 12 04 06  07 14 50.381   +34 47 27.31  .19694 1.1507 143.9 21.5 .284  56
2019 12 04 07  07 14 57.418   +34 47 43.52  .19635 1.1502 144.0 21.5 .304  57
2019 12 04 08  07 15 04.489   +34 47 59.78  .19576 1.1497 144.0 21.5 .326  58
2019 12 04 09  07 15 11.594   +34 48 16.10  .19517 1.1492 144.0 21.5 .348  59
2019 12 04 10  07 15 18.733   +34 48 32.46  .19457 1.1488 144.0 21.5 .371  60
2019 12 04 11  07 15 25.907   +34 48 48.88  .19398 1.1483 144.0 21.5 .394  60
2019 12 04 12  07 15 33.117   +34 49 05.34  .19339 1.1478 144.0 21.5 .419  61
2019 12 04 13  07 15 40.362   +34 49 21.87  .19280 1.1473 144.0 21.4 .445  62
2019 12 04 14  07 15 47.643   +34 49 38.44  .19221 1.1468 144.1 21.4 .471  63
2019 12 04 15  07 15 54.960   +34 49 55.07  .19162 1.1463 144.1 21.4 .499  63
2019 12 04 16  07 16 02.313   +34 50 11.75  .19102 1.1458 144.1 21.4 .527  64
2019 12 04 17  07 16 09.704   +34 50 28.48  .19043 1.1453 144.1 21.4 .557  64
2019 12 04 18  07 16 17.131   +34 50 45.27  .18984 1.1448 144.1 21.4 .587  65
2019 12 04 19  07 16 24.597   +34 51 02.11  .18925 1.1443 144.1 21.4 .619  65
2019 12 04 20  07 16 32.100   +34 51 19.01  .18866 1.1438 144.1 21.4 .651  66
2019 12 04 21  07 16 39.642   +34 51 35.97  .18807 1.1433 144.2 21.4 .685  66
2019 12 04 22  07 16 47.223   +34 51 52.97  .18748 1.1428 144.2 21.4 .719  67
2019 12 04 23  07 16 54.843   +34 52 10.04  .18689 1.1423 144.2 21.4 .755  67
2019 12 05 00  07 17 02.502   +34 52 27.16  .18630 1.1418 144.2 21.4 .792  67
2019 12 05 01  07 17 10.202   +34 52 44.34  .18571 1.1413 144.2 21.4 .830  68
2019 12 05 02  07 17 17.942   +34 53 01.57  .18512 1.1408 144.2 21.3 .869  68
2019 12 05 03  07 17 25.722   +34 53 18.86  .18453 1.1404 144.2 21.3 .910  68
2019 12 05 04  07 17 33.544   +34 53 36.21  .18394 1.1399 144.2 21.3 .951  69
2019 12 05 05  07 17 41.408   +34 53 53.62  .18335 1.1394 144.3 21.3 0.99  69
2019 12 05 06  07 17 49.313   +34 54 11.08  .18276 1.1389 144.3 21.3 1.04  69
2019 12 05 07  07 17 57.261   +34 54 28.61  .18217 1.1384 144.3 21.3 1.08  70
2019 12 05 08  07 18 05.252   +34 54 46.19  .18158 1.1379 144.3 21.3 1.13  70
2019 12 05 09  07 18 13.286   +34 55 03.83  .18099 1.1374 144.3 21.3 1.18  70
2019 12 05 10  07 18 21.364   +34 55 21.53  .18040 1.1369 144.3 21.3 1.23  71
2019 12 05 11  07 18 29.486   +34 55 39.29  .17981 1.1364 144.3 21.3 1.28  71
2019 12 05 12  07 18 37.653   +34 55 57.11  .17923 1.1359 144.3 21.3 1.33  71